GFSNE_700_rhum_087.txt.gz
RH
22 25 32 36 38 37 37 32 27 24 32 37 38 39 44 37 35 40 45 55 61 63 62 77 77 78 96 96 92 87 100 100 98 96 97 97 97 98
33 37 38 39 39 39 28 23 28 35 39 42 44 46 41 38 41 45 48 56 64 65 61 60 76 75 74 89 85 86 100 96 95 94 88 72 50 28
38 43 42 41 32 24 25 36 39 42 44 46 44 41 40 42 44 51 53 55 56 59 58 58 63 68 75 80 80 79 80 70 43 21 10 6 3 3
44 40 39 23 22 37 40 40 40 41 43 44 42 38 16 12 13 21 42 56 62 61 58 61 66 71 77 60 36 25 16 10 6 3 3 7 9 9
37 24 23 22 40 40 41 39 39 35 33 22 8 6 5 4 5 5 12 21 33 53 64 74 74 65 40 22 10 5 4 2 4 9 9 9 9 9
24 22 29 42 42 41 33 22 12 9 8 8 7 6 5 4 4 4 4 3 5 14 35 61 61 56 36 9 3 2 3 9 9 10 11 12 13 12
26 41 43 44 38 12 9 10 10 10 10 11 11 11 10 8 6 5 3 3 2 2 3 4 4 3 2 2 2 8 10 10 12 13 13 13 14 14
44 45 45 23 9 11 12 12 14 15 16 16 17 15 13 9 6 4 3 2 2 2 2 2 2 2 2 6 11 12 12 12 13 13 12 13 15 16
46 34 11 11 13 15 17 18 19 20 20 20 19 16 13 10 8 7 5 4 3 3 2 3 3 5 10 13 13 15 16 16 16 17 17 18 19 21
11 11 14 15 18 19 21 22 24 24 23 22 21 20 18 15 12 10 8 7 6 5 6 8 10 12 14 15 17 19 21 22 23 23 24 26 28 28
12 14 15 17 20 22 24 26 26 25 24 23 22 21 20 19 18 17 14 12 9 8 10 12 16 18 20 21 23 24 27 28 29 29 31 34 34 34
12 14 16 20 24 26 28 28 27 26 25 24 23 23 23 24 23 22 17 11 8 8 11 13 18 22 23 27 30 33 34 35 35 36 37 37 36 38
13 17 21 25 29 30 30 29 28 28 27 26 26 28 29 29 28 23 16 11 8 7 8 11 18 24 31 36 41 41 40 41 42 41 39 40 44 49
18 23 26 31 33 33 31 30 30 30 29 30 33 35 35 33 30 22 16 11 9 10 12 14 19 24 32 41 44 49 53 52 50 47 45 49 57 54
23 27 32 35 36 34 33 33 33 33 36 39 42 44 42 38 30 21 16 11 10 11 13 16 19 24 35 45 47 51 52 50 52 55 54 59 60 56
27 31 36 39 39 38 37 37 40 43 47 49 50 50 48 40 30 21 15 11 12 12 13 16 20 25 35 45 47 51 54 50 58 57 55 60 58 50
29 34 38 40 42 43 43 45 48 50 53 54 54 54 51 42 31 21 15 12 13 14 16 18 23 24 32 42 48 57 56 60 60 57 55 52 49 44
31 35 39 42 45 47 49 48 46 48 58 60 58 57 54 44 32 20 15 13 15 16 20 25 29 28 33 46 54 57 60 55 54 55 51 43 46 50
30 34 38 42 45 47 47 46 44 44 52 63 63 60 57 50 36 22 16 15 17 19 23 28 31 33 38 46 55 63 65 63 59 59 55 51 48 52
28 32 35 39 43 45 46 45 43 42 46 65 66 62 60 54 37 24 18 16 19 22 26 33 36 41 45 46 53 61 67 62 61 58 60 58 56 55
26 28 31 33 36 39 41 42 40 39 40 61 71 67 64 58 41 26 17 18 21 25 29 38 45 46 53 60 63 66 69 72 70 65 65 65 62 60
24 25 27 28 31 33 35 35 35 36 37 49 78 75 68 61 48 32 22 22 24 26 31 38 41 46 54 64 72 74 75 81 86 84 81 78 72 64
25 25 25 26 48 30 29 59 73 74 62 77 86 86 75 70 54 39 25 23 26 31 35 40 46 50 52 56 60 67 76 81 85 90 93 96 93 87

GFSNE_700_rhum_093.txt.gz
RH
25 47 54 29 31 26 42 37 40 40 40 33 26 32 37 40 40 39 33 32 36 39 41 40 40 46 52 56 56 57 63 69 69 76 79 79 86 91
24 24 33 24 26 34 40 40 44 46 44 29 31 42 42 43 40 34 30 13 14 27 38 38 42 47 50 52 50 53 59 67 72 75 74 64 48 41
23 24 26 35 32 37 40 46 48 47 33 29 44 42 41 39 25 9 5 5 4 5 8 12 22 29 35 42 50 57 65 76 76 58 23 16 8 5
23 26 28 32 40 47 52 49 46 31 33 42 44 40 30 11 7 6 6 6 6 6 5 4 5 7 10 15 24 43 59 60 49 41 35 11 3 2
28 34 38 44 48 55 50 41 26 35 45 41 27 13 9 8 8 10 11 11 10 8 7 6 4 4 3 3 4 7 12 14 10 5 2 2 3 6
40 41 45 47 48 48 31 26 41 46 35 10 9 9 10 12 14 16 16 14 12 10 8 7 5 5 5 4 3 3 2 2 2 2 3 6 8 9
42 40 42 43 28 28 28 49 43 16 10 10 12 15 16 18 19 18 16 15 14 12 10 10 9 8 8 8 8 6 5 4 4 5 7 9 10 11
28 30 26 27 29 37 51 39 9 10 13 16 18 20 21 21 20 19 18 16 15 14 14 15 15 15 15 14 13 11 9 8 8 9 10 10 13 15
23 25 31 37 52 54 34 9 12 16 19 21 23 23 22 22 20 19 18 19 20 20 20 20 19 18 17 15 14 12 9 9 11 13 13 14 16 18
35 37 51 52 52 14 11 15 18 21 23 25 25 24 23 22 20 21 23 25 26 27 26 24 22 20 17 16 12 10 8 9 11 15 18 20 21 23
45 57 56 36 10 14 17 19 22 25 26 26 26 24 23 22 23 26 28 30 32 32 30 28 23 20 18 16 12 10 9 10 12 16 21 26 28 30
64 54 14 11 15 16 18 22 26 28 28 27 26 25 24 24 27 30 34 36 37 35 32 29 25 22 19 16 13 9 8 9 11 16 23 29 33 34
29 9 11 13 14 18 22 27 30 30 30 28 28 27 27 29 34 37 39 40 40 39 35 32 26 22 19 16 12 10 10 10 13 18 26 31 36 38
8 9 10 12 17 23 27 31 32 32 31 30 30 31 34 38 42 43 43 43 42 40 38 34 29 25 22 17 13 12 11 12 15 21 27 33 37 38
7 8 11 17 23 28 32 34 35 35 35 35 36 38 42 45 46 47 47 46 45 43 40 37 32 28 24 20 15 13 12 17 21 26 31 34 37 38
7 10 16 22 27 31 34 37 38 39 40 42 44 45 45 46 50 53 53 50 49 46 43 41 35 31 25 22 18 15 15 17 27 30 34 39 41 45
9 15 21 25 29 34 37 39 41 44 45 45 45 43 43 42 46 56 58 56 53 51 47 44 40 34 29 26 21 20 19 22 28 36 41 46 49 50
14 19 22 26 30 34 37 40 43 44 45 46 45 44 43 42 42 48 61 64 60 55 52 48 44 40 36 29 30 29 25 25 30 35 43 48 52 55
17 20 22 25 28 32 35 38 40 43 44 44 43 43 42 41 41 48 57 71 70 63 58 53 49 44 43 36 31 29 29 30 31 41 48 55 57 63
17 18 20 22 25 28 30 32 34 36 37 37 42 58 42 40 63 88 81 83 80 72 66 60 56 50 47 42 37 37 35 35 37 38 41 47 55 69
15 16 18 19 21 23 25 27 28 28 29 30 51 60 44 50 84 89 89 87 83 81 76 70 64 56 47 44 37 40 48 53 55 55 56 55 54 53
14 15 16 18 19 20 22 22 23 23 24 24 28 29 72 88 91 91 91 86 85 84 81 74 66 54 47 40 40 41 49 58 60 54 55 63 63 56
16 17 18 19 20 21 22 22 22 24 24 23 25 37 82 88 93 93 91 86 89 85 82 76 65 52 43 42 39 36 37 46 50 49 54 68 71 73

GFSNE_700_rhum_096.txt.gz
RH
19 19 23 25 30 58 51 31 27 55 41 37 41 44 30 30 36 39 37 36 33 28 24 28 34 36 38 43 47 47 46 43 40 48 57 60 67 58
20 25 28 28 29 26 62 31 32 37 40 44 45 34 30 41 38 38 36 27 9 5 5 7 9 11 19 24 28 26 25 25 28 40 56 69 54 25
24 25 25 25 25 25 66 39 36 42 47 47 41 28 41 42 40 30 12 6 5 6 6 6 6 6 6 7 7 7 7 10 18 25 38 45 45 43
27 26 26 27 28 30 97 56 47 52 50 42 26 40 41 38 21 9 7 8 9 10 10 9 9 8 7 6 6 5 5 5 5 6 8 7 4 2
29 30 31 35 36 39 54 53 54 50 36 24 42 40 26 13 9 9 10 13 14 14 13 12 10 8 7 6 6 6 6 6 5 4 3 3 2 3
35 43 41 44 46 51 52 52 51 32 26 43 39 13 10 10 12 14 16 17 16 15 14 12 11 10 10 10 10 11 12 12 11 8 6 5 6 7
37 43 48 50 47 48 46 40 30 29 47 28 10 10 12 15 17 19 19 18 16 16 15 13 13 13 14 15 16 16 16 16 15 13 10 8 8 9
43 44 41 36 36 35 31 31 39 51 14 10 12 15 18 20 21 21 20 18 17 16 17 18 19 19 19 19 19 18 18 18 16 12 9 9 10 11
42 33 29 26 30 32 36 52 54 11 10 14 17 20 23 23 22 21 19 19 21 23 24 25 25 24 23 22 20 20 19 16 13 10 8 8 10 13
35 29 26 30 33 50 60 53 10 11 17 20 22 24 25 24 23 21 20 23 26 28 29 30 29 27 25 24 22 20 18 17 13 9 8 8 11 15
33 33 37 41 57 59 37 9 15 18 21 24 26 26 25 24 22 22 24 27 31 33 34 34 32 30 29 26 22 19 20 18 14 10 8 9 11 16
42 43 52 62 60 16 11 16 18 21 25 28 28 27 26 25 24 25 28 33 36 37 36 35 35 32 30 27 24 22 21 19 15 12 9 10 13 18
50 63 70 52 12 13 15 17 21 26 29 30 29 28 27 27 27 30 35 39 40 40 40 39 38 37 34 31 28 26 23 22 18 13 11 11 15 21
73 67 34 10 12 13 15 20 26 30 32 32 31 31 31 31 34 39 43 45 45 44 43 43 42 39 38 35 32 29 28 26 21 16 14 14 18 23
62 21 8 9 10 13 20 25 30 34 35 35 35 36 37 40 43 45 48 51 52 51 49 47 45 43 41 39 36 32 30 26 22 20 18 16 23 27
27 7 7 8 11 18 25 30 34 37 38 39 41 43 44 44 43 43 43 45 51 55 55 53 50 48 46 44 41 37 36 30 27 26 24 23 26 34
11 6 6 9 17 23 28 32 37 39 42 44 45 45 45 44 44 43 43 43 44 52 60 62 59 54 51 49 45 42 39 38 37 31 27 25 29 36
6 5 7 14 21 25 29 34 37 40 43 45 45 46 45 44 44 46 48 50 68 76 72 72 68 62 59 52 52 50 46 44 42 39 33 30 31 36
5 7 11 18 22 25 28 32 35 38 40 42 42 42 41 40 67 65 49 53 77 79 80 79 76 72 69 65 60 55 50 46 40 36 36 35 36 41
9 12 15 18 21 23 25 27 30 32 34 34 34 34 34 36 52 45 63 81 80 81 84 82 80 77 74 69 65 53 50 43 38 35 38 37 39 42
12 13 15 17 18 19 21 22 23 25 26 26 26 27 27 26 31 30 53 83 83 88 89 85 83 80 76 72 64 53 44 39 32 27 29 32 35 38
11 12 13 14 15 16 16 18 19 20 21 21 22 23 22 24 24 30 64 86 89 90 87 86 85 81 77 73 65 56 42 39 31 29 31 35 36 34
12 12 12 13 14 15 16 17 18 19 20 21 22 28 76 40 43 56 78 91 93 93 89 90 87 84 80 74 65 53 40 31 29 32 40 43 44 46

GFSNE_700_rhum_099.txt.gz
RH
43 25 32 37 35 29 43 61 39 95 44 28 34 39 44 45 37 27 37 41 37 33 25 11 12 20 26 29 32 34 37 40 35 31 22 20 24 45
25 22 22 23 25 30 32 39 82 95 90 45 44 44 47 41 26 38 38 38 34 16 6 5 6 6 8 9 11 14 15 14 11 9 9 10 12 17
29 25 25 26 25 25 26 83 30 38 97 45 47 51 50 26 36 37 37 26 9 6 7 8 9 8 8 8 8 8 7 6 7 7 6 6 5 4
31 30 30 29 27 27 26 28 33 33 95 69 53 53 34 32 40 37 23 9 8 9 11 12 12 12 10 9 8 6 6 7 7 8 8 10 8 5
32 33 31 30 29 29 30 34 45 53 63 58 52 38 29 43 35 19 9 9 12 14 15 15 14 13 11 10 8 8 9 10 11 13 14 14 12 9
33 33 35 35 37 40 40 43 54 64 60 56 38 29 46 29 12 10 11 14 16 17 16 15 14 13 12 11 11 12 13 15 16 16 16 16 15 13
36 34 34 37 39 45 49 49 47 53 53 36 31 47 22 10 11 14 16 19 19 18 16 15 14 15 16 16 17 17 18 18 17 17 16 15 13 10
37 36 34 38 46 46 48 47 47 41 30 36 49 13 10 14 17 19 21 21 19 16 16 18 20 21 22 22 21 21 20 19 19 16 16 15 12 9
44 41 46 47 42 37 36 39 35 33 45 43 10 10 16 19 21 22 22 21 19 19 22 24 26 27 26 25 24 23 22 20 18 17 16 15 13 10
54 50 48 42 35 33 32 35 43 57 52 9 12 17 21 24 24 24 23 21 21 24 27 29 30 31 30 28 28 26 23 20 19 19 18 17 15 12
61 52 44 36 36 36 39 56 64 49 10 13 19 22 25 26 25 24 23 23 26 28 32 34 34 33 33 32 30 28 25 23 22 21 20 20 17 14
60 48 41 40 45 47 60 65 27 10 16 20 23 26 27 27 26 25 24 26 30 34 37 37 38 37 36 35 32 31 30 28 26 25 25 23 20 16
54 49 53 50 59 67 62 16 11 16 20 23 27 29 29 28 28 27 28 32 37 40 42 42 43 42 41 40 38 36 34 32 31 31 30 28 23 19
58 55 64 75 76 49 11 12 15 18 23 28 31 31 31 31 31 33 36 40 42 45 48 49 48 47 46 44 42 40 38 37 36 36 37 33 29 23
70 76 82 78 35 9 11 13 16 22 29 32 34 34 34 36 38 41 44 44 43 44 48 53 54 53 52 50 47 44 43 42 42 44 42 41 39 34
84 86 70 22 8 8 10 14 21 28 33 36 37 39 40 43 45 44 43 42 43 43 44 45 50 56 59 58 54 50 49 48 49 50 49 47 45 41
93 82 28 8 7 8 12 19 26 32 36 39 41 44 46 46 45 44 45 45 49 55 58 69 74 72 70 68 62 58 57 56 56 55 53 51 45 37
96 59 16 5 6 10 17 24 30 35 38 41 44 46 47 46 46 45 44 66 62 58 63 74 76 78 78 73 69 66 62 62 58 56 54 48 38 33
95 66 33 20 8 14 21 26 31 35 37 40 43 45 45 44 42 40 43 57 44 47 71 78 79 80 80 79 76 71 67 62 60 56 49 40 25 23
93 57 24 6 11 16 21 25 28 31 33 34 35 36 36 35 34 33 32 34 31 32 66 82 81 83 82 79 78 75 70 64 59 54 43 30 21 21
58 28 12 40 50 28 19 22 23 24 25 26 26 27 27 27 26 25 25 26 27 33 66 87 85 83 82 81 80 78 73 67 60 52 39 25 23 27
49 40 49 44 14 15 16 17 18 18 18 19 34 23 22 22 22 22 29 63 39 49 66 92 91 88 84 84 83 80 74 66 60 51 37 25 23 27
80 63 26 11 11 12 13 14 14 14 15 17 36 18 19 21 22 24 79 93 64 84 82 95 92 91 88 89 86 83 77 68 57 46 32 28 27 32

GFSNE_700_rhum_102.txt.gz
RH
58 54 51 49 37 36 46 52 56 45 70 74 98 80 56 40 40 48 45 28 38 41 41 35 15 11 17 29 28 29 32 34 30 21 13 10 10 9
53 48 42 34 29 28 32 39 48 79 78 81 81 100 95 48 45 49 36 33 44 41 35 12 6 6 7 8 9 10 11 11 10 8 8 8 9 9
55 51 42 35 32 30 28 27 31 38 68 94 96 41 72 57 52 46 29 44 43 34 11 6 7 9 9 9 8 9 8 8 7 7 8 9 11 12
56 51 42 36 34 32 31 30 31 33 43 46 90 51 99 61 52 30 42 44 38 12 8 9 11 13 13 11 10 9 8 7 8 9 10 12 13 14
48 42 37 34 32 33 34 37 35 36 38 82 73 64 66 54 41 33 46 37 14 9 11 14 16 15 13 11 10 9 9 9 10 12 14 15 15 14
43 39 37 35 34 33 35 40 45 48 68 50 53 78 60 52 30 46 30 15 10 13 16 17 16 14 13 12 12 11 12 13 15 16 16 16 15 14
41 41 40 36 39 39 38 39 45 49 62 59 62 59 54 33 54 26 12 11 14 17 18 17 16 14 14 16 16 17 18 18 18 18 18 16 15 14
45 44 45 40 40 41 43 44 48 53 55 57 62 48 34 55 22 10 13 17 19 19 18 17 16 18 20 22 22 22 22 21 20 20 18 16 16 16
45 48 47 50 50 44 48 51 49 46 47 45 41 38 58 16 10 15 19 21 22 21 19 18 22 24 26 26 26 26 25 24 23 21 18 17 18 18
58 56 59 61 57 51 50 44 39 40 41 42 42 58 16 10 16 21 23 23 22 21 20 23 27 29 30 30 30 29 28 28 25 22 20 20 20 20
65 67 70 70 61 53 46 40 41 44 45 61 64 16 11 18 22 24 25 24 22 22 24 28 31 34 35 34 34 33 32 30 28 26 25 24 24 24
65 71 78 72 59 50 48 45 47 65 72 66 11 12 19 23 25 25 25 24 24 25 29 34 37 38 37 37 37 36 36 35 33 31 30 30 30 32
74 82 80 65 55 52 51 59 68 76 48 11 14 20 24 26 27 26 26 26 26 29 37 42 43 43 42 42 42 42 40 39 37 36 36 36 37 39
96 91 76 64 60 62 69 77 80 28 11 16 19 24 28 28 28 28 29 29 33 40 46 47 49 48 48 48 48 47 46 45 43 42 41 43 45 46
100 97 77 69 66 84 90 72 17 11 14 18 24 28 30 31 32 33 35 38 44 45 46 46 46 46 50 53 55 55 54 52 49 48 48 51 52 51
100 99 86 84 93 87 41 11 10 12 16 23 28 32 34 35 37 40 44 46 44 43 43 44 48 53 59 65 65 65 64 60 58 56 57 56 56 53
98 98 98 100 69 19 7 8 10 13 20 27 32 36 38 41 45 47 47 45 45 45 54 63 62 65 69 71 74 75 74 68 64 63 61 60 56 53
98 97 97 94 15 15 37 11 10 18 25 31 36 39 43 48 49 49 48 47 45 51 65 47 43 55 72 72 73 76 75 71 67 65 63 61 57 50
97 96 97 96 85 54 12 9 18 22 28 33 38 43 47 50 52 50 49 46 42 44 47 36 32 43 74 73 78 82 79 74 70 67 66 61 54 48
97 97 96 93 57 49 56 32 18 23 28 34 39 42 46 78 51 45 42 38 35 32 31 29 29 44 76 77 81 87 83 79 75 71 69 62 56 47
96 97 96 93 74 50 32 18 20 22 27 30 32 34 39 52 34 32 30 28 26 25 24 32 58 53 76 85 85 86 87 84 79 73 70 66 59 46
96 95 64 54 62 57 24 43 23 19 21 22 23 24 25 27 60 88 60 26 21 21 25 79 92 76 86 89 89 89 93 95 88 79 74 68 60 48
96 96 92 73 59 39 59 85 73 53 22 17 17 16 16 17 48 68 20 19 20 21 51 94 95 90 91 92 90 92 95 96 92 84 76 69 60 51

GFSNE_700_rhum_105.txt.gz
RH
64 58 58 56 56 55 54 58 61 54 60 62 54 57 81 81 98 100 76 52 52 44 30 44 42 35 20 20 34 53 83 81 68 44 30 29 12 9
70 59 58 57 53 47 40 36 39 43 65 50 51 81 81 98 95 69 85 59 55 32 37 43 37 14 7 10 12 19 26 26 23 20 16 9 8 9
62 61 60 58 56 52 43 37 35 33 31 38 62 73 71 86 93 51 92 63 53 32 43 38 19 7 7 9 9 9 9 10 10 9 7 8 9 12
68 64 62 58 51 47 42 38 37 38 36 43 58 98 67 65 95 70 81 60 36 45 45 21 8 8 10 12 12 11 10 9 8 7 8 9 12 13
68 65 62 56 48 42 40 37 40 43 41 49 62 68 59 98 91 94 64 55 35 46 36 11 9 12 14 14 12 11 10 9 9 9 10 13 14 15
66 60 55 49 45 43 44 41 40 46 48 54 56 70 90 92 78 83 64 37 50 36 12 10 14 16 16 14 13 12 12 11 12 13 15 16 16 16
55 52 51 50 48 45 44 46 43 44 53 52 56 64 99 68 72 65 42 51 37 15 12 14 16 16 15 14 14 14 15 16 17 18 18 18 18 16
53 51 49 48 47 51 52 49 50 46 49 55 60 71 72 68 69 47 46 34 12 12 16 18 18 17 15 16 19 21 22 22 21 21 20 20 18 16
56 56 57 56 54 50 55 58 58 53 53 53 54 59 63 63 48 54 35 11 14 18 20 18 18 16 19 22 25 26 26 25 25 24 24 22 19 18
58 58 60 64 64 62 58 65 62 59 56 52 52 56 55 48 57 28 10 15 19 21 21 20 18 21 25 27 29 30 30 29 28 28 26 24 22 21
62 64 65 64 65 70 72 74 65 57 53 49 50 51 51 67 29 11 16 21 23 23 22 21 22 27 30 32 33 33 32 32 32 31 30 29 28 27
66 60 60 62 67 76 81 75 62 54 52 53 52 61 74 29 10 17 22 24 24 24 22 22 26 31 34 36 36 37 36 36 36 36 35 34 33 32
71 63 68 78 84 87 81 68 59 56 57 58 83 80 30 11 18 22 24 24 24 25 24 26 30 35 38 40 42 43 42 42 42 42 40 39 38 38
79 81 87 100 100 87 73 66 62 65 81 87 69 16 13 18 22 24 25 25 26 26 27 32 39 40 43 46 48 48 47 49 49 49 48 46 44 44
85 94 100 100 99 84 77 75 81 95 96 44 12 13 18 22 25 26 27 28 29 32 37 43 44 45 45 44 45 48 50 55 57 58 58 54 52 52
85 93 96 97 97 94 97 100 100 78 26 10 12 17 24 25 28 29 31 34 38 44 48 45 43 44 47 56 63 66 66 68 71 71 68 62 59 60
88 93 97 96 97 97 96 86 43 14 9 11 14 20 26 29 32 35 39 46 48 47 44 44 46 60 58 54 58 69 69 71 73 74 73 68 65 63
90 96 97 96 96 96 95 74 9 7 10 13 17 23 35 47 37 41 49 51 51 48 46 46 59 61 41 35 48 72 73 73 73 75 73 71 69 65
95 97 97 96 97 96 64 18 26 50 31 41 31 27 33 36 42 49 55 75 83 57 50 45 42 41 33 30 52 71 77 75 76 76 76 74 71 69
95 95 99 97 96 96 94 86 89 61 37 25 27 49 38 43 45 55 72 94 80 66 44 38 33 29 27 36 72 86 90 86 81 80 78 76 74 70
94 95 97 99 99 96 88 58 45 39 22 23 28 30 35 39 43 53 80 88 53 45 34 30 28 24 24 38 80 90 94 92 88 85 84 84 81 75
96 96 97 97 97 96 95 76 53 74 76 52 37 27 31 34 37 40 56 53 64 94 94 94 33 20 22 54 93 92 96 97 92 88 87 88 86 78
96 97 98 97 97 75 68 90 88 38 30 27 18 20 22 23 24 25 25 25 40 90 76 23 19 44 22 65 94 94 95 97 97 95 92 88 86 80

GFSNE_700_rhum_108.txt.gz
RH
80 80 80 71 60 59 63 60 69 74 56 58 69 62 79 64 55 77 90 98 97 81 56 53 36 42 44 39 35 39 92 100 99 68 98 41 32 12
83 78 79 67 61 60 58 55 51 45 43 41 40 45 58 59 70 90 81 83 99 79 66 55 35 45 40 22 18 48 89 79 94 88 51 30 18 9
87 72 70 69 67 64 61 56 50 47 44 52 64 98 50 96 100 82 92 86 76 97 66 48 41 46 35 10 10 15 26 32 33 33 24 13 10 8
75 75 74 75 76 69 72 76 67 60 59 45 44 52 50 60 80 100 67 84 96 71 63 35 48 42 14 9 9 10 10 10 10 10 9 8 8 9
68 69 69 68 65 60 57 54 52 44 43 43 43 47 50 61 99 90 81 90 74 83 58 42 48 22 10 10 12 12 11 10 9 8 8 8 9 12
64 62 60 57 53 51 50 51 51 53 46 47 46 45 56 74 71 97 88 96 84 68 42 52 38 13 11 14 14 13 12 11 10 10 10 11 13 15
60 56 54 52 50 49 50 50 51 54 56 57 48 51 68 76 88 97 100 78 75 59 50 40 16 12 15 16 15 13 12 12 13 14 15 16 17 17
53 51 49 48 48 48 49 53 55 53 57 60 58 57 67 65 71 100 83 75 68 49 47 18 14 15 16 15 14 14 15 18 19 20 20 20 20 20
51 50 48 46 44 49 53 55 60 62 61 62 64 62 63 70 72 77 73 66 61 51 18 14 16 17 16 16 16 19 22 24 24 24 24 23 23 22
55 59 57 55 52 55 58 60 64 66 67 71 67 65 60 61 65 66 58 60 48 16 13 16 18 18 17 17 22 26 28 29 28 28 27 27 26 25
66 67 66 60 55 51 53 56 63 72 74 76 69 61 57 56 56 57 65 45 12 13 17 19 20 19 19 23 28 31 33 33 32 32 31 31 30 30
70 70 68 63 56 54 56 63 73 78 80 74 65 61 56 55 60 71 54 13 14 18 21 21 21 20 23 29 33 35 36 36 36 36 36 36 36 35
75 72 69 68 63 56 65 80 83 83 78 69 66 66 67 63 90 58 12 14 19 21 21 21 22 24 28 33 37 40 41 41 41 42 42 42 42 42
75 75 70 73 76 78 94 98 90 80 72 70 75 85 95 90 65 12 20 20 21 21 22 23 24 28 35 42 45 47 47 47 48 48 50 51 52 52
76 76 76 79 85 89 95 96 89 79 76 85 96 100 83 36 13 16 20 22 23 23 24 25 29 38 44 50 51 48 46 48 55 62 65 65 64 63
73 78 82 82 87 92 94 94 94 89 99 100 99 72 15 11 15 20 22 23 30 27 29 35 45 50 48 46 46 56 63 62 65 65 67 69 72 72
74 82 83 85 88 93 95 94 97 98 96 78 26 10 10 14 38 50 25 25 35 34 40 48 50 49 45 48 58 50 38 50 67 67 68 70 73 74
79 87 84 87 90 93 94 94 98 96 84 63 12 10 12 16 40 30 28 32 38 49 52 53 74 51 46 69 64 41 35 51 71 71 69 70 75 74
84 87 86 88 90 91 92 94 98 95 70 20 9 12 37 36 24 48 42 42 51 54 62 94 86 68 92 68 48 36 30 49 76 81 80 75 75 79
89 90 90 91 91 91 92 96 92 52 25 30 41 46 50 51 31 48 37 50 56 62 88 96 94 90 57 39 33 30 27 42 78 85 86 83 80 81
93 92 95 94 92 92 93 95 93 94 83 80 90 45 34 24 33 76 64 62 58 84 96 95 80 58 46 58 37 27 24 40 82 86 89 86 85 83
81 95 96 97 97 95 94 94 96 93 72 53 46 30 52 54 67 35 40 61 53 81 95 86 89 84 93 96 49 22 28 30 74 88 90 89 85 86
91 90 95 100 100 98 97 97 88 92 93 66 78 88 81 47 29 27 32 38 50 43 53 57 73 82 79 39 33 41 40 26 78 92 89 89 85 88

GFSNE_700_rhum_111.txt.gz
RH
77 77 76 76 76 76 68 61 60 59 57 54 50 48 48 53 88 100 94 99 88 100 93 98 77 64 47 37 45 40 38 93 100 94 80 100 98 37
63 77 80 83 78 71 68 66 65 63 60 54 49 47 50 53 70 77 51 100 100 98 99 83 89 70 43 44 48 40 32 65 89 95 99 98 59 31
66 75 77 78 76 73 73 73 74 73 72 72 71 73 76 76 68 58 88 99 90 89 90 90 74 61 39 49 46 30 48 84 100 98 98 56 24 23
61 64 66 69 68 67 67 66 64 62 60 60 66 55 52 56 62 67 58 76 93 98 84 99 91 65 43 52 39 17 29 40 27 26 21 18 20 14
53 51 49 52 54 54 53 52 50 49 49 49 48 48 48 51 60 60 62 99 99 98 93 96 87 58 46 52 21 11 13 19 23 16 20 11 9 8
46 49 47 49 49 49 48 46 45 44 44 45 46 49 52 55 61 68 76 94 99 99 99 94 79 45 55 44 14 11 12 11 10 9 8 8 8 8
45 45 44 45 45 46 45 42 41 42 43 45 45 47 53 64 98 94 91 96 98 100 100 86 76 51 56 29 15 14 13 12 10 9 9 9 10 12
47 45 42 39 38 39 38 36 37 42 47 49 54 52 54 63 69 71 96 85 81 100 92 78 59 60 34 16 14 14 13 12 11 11 12 14 16 18
43 38 39 48 52 54 54 54 54 52 52 54 60 63 62 68 67 66 67 75 82 85 77 60 63 42 18 15 15 13 13 13 15 18 20 20 21 21
40 40 49 52 58 59 56 54 52 49 51 56 62 69 72 74 69 67 69 67 72 71 64 60 33 19 16 15 15 14 16 20 23 25 25 25 25 25
50 49 53 57 62 63 59 56 52 51 54 60 68 75 78 75 68 64 64 67 66 68 61 25 15 15 16 16 15 18 23 27 29 30 30 29 29 29
53 52 57 60 65 63 62 59 55 55 63 73 79 81 81 73 68 65 79 71 77 60 19 14 15 16 18 17 19 25 30 33 35 35 34 34 34 34
55 57 60 64 67 66 65 63 62 60 77 84 84 81 74 69 68 66 73 87 85 22 13 16 17 18 20 20 25 31 35 37 39 39 39 40 41 41
57 61 63 68 68 68 68 70 73 80 88 87 82 76 70 69 71 81 93 95 34 13 16 18 18 20 21 25 30 35 41 44 46 48 48 50 50 50
62 63 67 69 67 69 72 75 77 82 86 88 81 79 84 86 98 99 82 16 31 57 21 19 20 22 28 28 38 46 50 51 52 51 54 61 64 65
63 70 71 69 71 74 74 77 81 87 88 92 88 93 99 100 89 33 27 13 16 21 54 27 22 23 32 42 53 54 50 49 60 62 66 68 68 68
74 78 75 74 77 76 77 80 84 87 90 93 98 99 83 68 25 11 13 16 24 24 58 43 28 40 52 55 53 55 67 75 43 45 65 71 71 69
81 85 84 82 81 78 80 83 86 86 87 95 91 77 66 30 11 12 24 51 57 36 37 54 45 64 56 75 93 75 94 91 43 35 66 76 79 73
81 90 94 90 85 82 83 85 87 86 90 94 95 92 42 21 13 14 38 62 52 45 34 45 56 63 84 94 78 91 95 58 36 30 40 75 84 83
89 86 94 96 90 86 86 87 88 88 92 84 74 58 27 11 17 29 33 22 52 46 51 79 59 68 94 86 93 93 51 41 32 26 29 56 83 89
92 91 83 75 83 89 90 90 90 92 93 94 62 40 49 49 50 59 58 28 39 39 53 64 67 84 92 96 95 83 70 88 68 28 27 28 65 84
95 99 88 82 87 94 91 91 92 95 94 95 93 92 88 81 72 51 43 38 74 85 95 94 82 97 90 94 96 96 95 94 43 34 53 37 46 84
96 96 93 91 96 94 92 93 93 95 96 91 94 86 63 47 52 42 35 34 88 51 43 89 76 77 80 91 94 94 95 93 89 83 80 40 37 87

GFSNE_700_rhum_114.txt.gz
RH
70 68 67 71 75 74 75 73 69 69 68 67 65 59 55 50 52 66 74 66 80 62 74 99 98 85 71 83 58 37 42 44 80 90 82 94 100 85
67 63 56 61 72 75 75 73 71 70 68 68 70 70 70 71 65 74 78 80 86 67 76 99 99 97 77 81 63 40 48 46 70 96 95 100 98 98
49 42 44 47 49 45 53 59 67 66 60 59 58 59 57 56 71 72 65 71 83 89 97 87 93 95 71 83 68 48 53 47 67 92 100 100 100 100
48 47 43 45 45 46 45 48 46 44 42 46 45 44 45 47 50 50 53 68 80 74 79 68 100 94 95 84 68 51 61 89 91 100 100 96 100 99
54 47 43 48 47 45 46 47 43 39 40 38 38 40 40 44 47 48 48 55 79 100 100 98 88 100 97 96 61 58 60 29 100 93 100 100 100 64
49 43 40 43 42 43 42 41 43 40 35 34 32 34 38 42 46 50 59 73 92 91 100 100 99 99 100 90 55 62 51 26 26 44 55 66 70 26
48 43 38 42 43 38 37 33 36 33 31 32 35 36 38 41 53 54 84 99 100 97 97 91 96 98 96 84 60 59 29 20 15 13 13 15 11 8
50 40 40 38 35 35 44 40 45 43 38 45 50 50 50 52 57 62 71 88 99 97 100 97 88 100 90 78 59 52 24 17 14 11 9 8 7 7
42 39 38 36 38 41 43 47 50 48 50 51 48 49 53 59 63 66 69 73 76 82 80 76 86 89 80 65 58 32 18 15 12 10 9 9 10 11
44 38 41 44 52 50 49 50 51 51 49 48 46 49 53 59 67 72 74 74 73 72 74 86 83 74 70 60 27 17 15 13 11 11 12 15 17 19
42 44 48 52 55 57 57 57 55 54 50 50 48 50 55 64 71 78 80 76 70 73 79 72 71 70 44 26 19 14 13 13 13 17 20 22 23 24
47 45 52 58 56 55 63 60 60 59 54 52 52 55 65 75 79 82 81 74 71 76 75 71 67 32 18 15 14 14 13 15 20 25 27 29 29 29
51 50 55 54 56 62 60 62 62 59 58 59 58 65 77 82 83 80 76 74 74 78 86 56 20 14 15 15 22 19 18 23 28 32 35 35 35 36
55 57 59 58 60 64 65 62 60 61 64 68 67 76 84 83 78 74 76 79 78 91 96 64 13 15 17 16 35 24 25 30 34 37 39 40 42 43
67 61 60 59 66 68 68 66 63 65 71 73 75 82 87 86 80 77 82 96 100 100 66 16 15 16 17 18 19 24 30 35 41 46 48 51 52 51
61 40 36 44 70 71 70 68 68 71 76 78 82 88 91 87 86 89 99 96 77 31 18 41 30 18 17 20 27 32 38 46 54 56 55 60 65 66
45 38 37 54 74 78 74 71 72 77 77 81 84 90 95 97 95 92 84 37 26 17 13 33 50 52 20 21 62 56 54 58 57 60 73 72 67 73
48 42 53 70 82 81 78 78 79 78 80 84 87 92 92 81 68 68 45 12 12 21 17 19 42 33 27 37 57 63 59 69 82 90 93 72 68 68
57 60 70 78 76 76 84 87 85 81 84 86 88 92 92 89 80 21 16 12 13 24 38 49 50 63 73 65 85 75 85 94 93 96 94 54 32 47
77 77 75 76 76 71 72 86 88 86 86 91 93 88 85 78 38 24 28 14 19 51 64 45 40 35 70 83 86 96 95 95 96 92 73 46 30 27
90 80 88 84 83 78 69 67 82 89 88 92 94 94 72 46 42 20 14 17 24 28 25 57 65 84 76 75 87 96 94 95 95 87 87 93 85 69
90 92 96 89 86 87 82 79 81 91 90 93 95 94 94 91 66 58 65 66 66 69 49 30 55 67 80 94 94 96 96 95 96 96 95 95 62 68
97 97 94 95 95 94 92 93 91 90 92 95 96 95 91 90 76 75 76 80 65 43 42 49 76 83 94 96 95 97 95 96 95 93 91 95 93 92

GFSNE_700_rhum_117.txt.gz
RH
66 60 62 66 63 58 64 67 72 71 67 68 68 69 70 70 71 72 71 56 65 70 75 81 90 89 100 98 93 77 65 56 42 51 79 88 91 99
57 60 69 62 47 49 54 58 62 58 50 56 58 58 58 57 56 57 61 76 84 76 69 85 100 100 100 99 96 70 79 57 48 65 75 100 94 96
58 54 53 48 42 42 40 41 39 37 34 35 38 42 40 40 39 40 44 51 60 63 66 74 82 93 85 99 98 91 86 70 66 80 91 87 98 96
63 57 55 49 44 44 39 35 38 38 38 38 36 35 37 38 38 39 42 46 49 53 62 73 74 82 98 92 99 98 94 65 72 99 95 100 99 100
58 56 51 46 39 36 38 41 37 37 37 36 33 34 32 32 32 33 38 42 49 51 62 76 100 97 86 87 100 98 94 68 70 100 100 100 100 100
63 58 51 46 44 42 41 38 36 33 32 32 32 32 34 35 36 32 36 40 48 73 87 100 93 100 99 99 96 97 97 89 69 71 100 82 99 96
72 61 53 49 50 43 42 39 32 30 32 34 37 36 41 46 49 49 42 42 50 76 100 100 100 96 96 89 99 100 97 70 70 54 37 98 85 68
77 65 57 51 44 40 38 34 31 31 35 44 45 49 48 49 50 53 54 53 56 89 100 100 100 93 83 80 89 99 87 85 93 35 24 19 16 18
69 59 52 43 40 37 37 35 32 33 38 40 45 49 47 47 51 54 53 60 66 88 96 96 90 80 80 86 82 83 71 77 80 27 20 15 12 9
62 56 48 41 39 41 40 38 41 44 47 47 47 47 45 47 50 54 56 64 74 80 84 84 78 75 85 83 76 74 73 51 38 18 14 10 9 8
60 52 46 45 45 42 42 45 46 45 49 50 48 48 51 52 54 58 70 78 83 85 83 80 75 71 72 74 71 66 42 26 19 14 11 10 10 12
54 49 47 47 47 43 44 49 50 49 51 51 54 52 56 57 63 70 79 90 91 88 86 82 79 77 71 71 50 28 21 16 13 11 12 18 18 20
54 51 54 52 48 43 50 52 52 53 56 56 57 56 60 65 73 78 84 92 89 85 84 82 84 81 66 32 20 16 14 14 13 14 17 22 25 28
60 63 60 54 48 52 55 54 54 56 64 64 63 62 68 73 77 80 87 89 91 91 92 79 90 69 23 14 15 15 16 17 42 23 26 29 33 36
66 63 60 50 49 52 51 53 50 57 65 70 67 68 78 81 76 80 86 90 91 91 89 94 100 98 32 13 14 16 30 32 36 34 33 36 39 40
76 68 56 59 40 32 32 47 62 57 68 75 75 76 81 81 82 86 91 91 96 100 100 100 90 31 14 15 15 16 17 24 28 65 48 44 50 53
82 66 63 50 42 37 42 54 63 73 78 80 80 77 78 79 82 90 95 95 95 85 51 43 17 24 37 28 17 18 22 29 41 44 51 57 59 62
93 84 55 54 47 47 48 61 79 83 85 85 81 78 77 79 83 85 72 59 64 37 19 26 20 21 44 52 32 20 69 64 56 57 59 59 65 78
99 97 61 58 62 60 67 78 79 83 88 87 82 81 79 81 85 86 83 72 45 14 11 22 24 16 36 50 31 45 46 58 72 89 84 92 96 96
83 72 64 68 82 81 80 81 77 68 67 80 87 85 84 84 82 79 70 47 20 22 16 15 24 24 39 55 64 76 77 90 94 94 94 96 97 91
73 73 74 82 95 91 90 86 81 75 70 74 90 90 90 89 87 65 59 38 24 26 15 19 33 79 62 46 39 64 83 85 95 96 96 96 94 92
80 88 88 90 100 94 94 92 90 83 81 80 90 95 96 94 91 90 74 49 39 27 24 28 26 28 41 71 94 90 90 86 92 95 95 96 96 94
99 100 100 100 100 100 94 95 94 90 89 92 94 97 100 98 95 91 87 87 80 74 72 71 71 76 53 37 56 75 83 95 94 96 96 96 96 90

GFSNE_700_rhum_120.txt.gz
RH
87 83 75 62 64 66 54 42 41 34 38 51 42 48 57 57 53 50 52 56 62 70 79 83 85 68 95 100 95 91 99 90 77 66 43 48 88 89
94 78 65 57 53 58 46 37 32 32 31 40 41 39 35 35 36 36 40 43 46 53 61 74 84 70 81 96 95 99 98 92 83 81 84 73 69 98
80 70 62 48 48 45 39 36 33 37 40 43 41 38 38 37 38 38 37 37 38 40 48 56 71 65 75 88 93 100 85 89 85 87 75 85 94 95
79 70 55 51 47 46 40 38 30 34 38 33 33 32 34 35 34 34 34 32 33 35 42 46 60 68 86 94 76 98 80 98 97 95 99 92 93 82
77 64 54 58 54 49 42 34 33 34 32 29 29 31 29 29 29 30 29 28 31 32 36 40 48 63 97 94 100 100 100 100 99 93 92 93 94 99
77 67 65 65 61 47 41 38 36 34 33 30 28 30 33 33 32 36 39 36 43 44 39 45 84 95 97 98 100 99 99 97 100 99 93 89 98 100
77 80 78 72 60 46 42 39 34 34 32 31 32 31 34 33 35 39 42 42 46 46 52 53 76 98 100 100 100 90 97 98 99 97 88 87 96 100
92 90 75 78 66 51 47 38 35 33 35 36 35 39 42 42 40 38 40 41 43 51 56 65 98 100 100 100 100 89 89 100 99 100 96 89 65 72
96 91 83 75 58 54 46 40 37 39 39 37 44 42 40 39 44 42 42 44 46 53 57 75 82 95 96 99 92 85 91 87 90 86 98 91 36 29
98 94 84 72 60 51 43 40 42 42 40 40 46 47 42 38 36 39 42 46 49 54 63 70 89 90 88 85 82 89 87 78 79 84 94 47 31 20
92 86 81 66 58 49 43 45 43 41 41 43 47 48 49 49 46 43 43 45 49 62 70 78 87 82 80 78 81 79 76 76 81 66 55 29 18 10
89 87 74 63 55 49 46 46 45 42 44 50 50 49 49 52 55 50 53 53 57 68 79 90 92 91 81 75 80 75 72 59 45 31 22 15 10 9
87 81 69 61 56 52 54 50 47 45 48 51 52 51 49 56 54 58 58 60 65 69 85 91 96 90 76 75 80 65 44 27 23 19 13 11 11 18
83 76 71 67 64 60 59 54 47 42 47 53 53 46 57 61 61 61 66 65 71 78 88 93 98 92 79 89 52 26 19 17 13 12 13 14 16 22
86 80 74 72 65 64 59 49 46 44 41 44 43 44 59 62 68 68 74 75 74 77 80 89 98 89 90 94 50 17 15 15 13 14 28 24 26 29
88 85 80 75 74 64 61 53 37 34 35 46 53 59 63 70 73 69 73 79 82 88 88 96 99 98 100 97 52 13 14 14 21 26 27 35 45 38
98 92 86 84 80 72 51 43 38 37 41 53 64 74 77 75 71 68 74 82 90 92 93 98 92 89 92 65 14 14 15 14 17 23 26 55 65 47
96 98 96 96 88 80 63 49 44 43 50 52 75 85 85 77 73 74 76 85 84 69 65 60 41 24 15 16 25 29 18 17 21 26 35 50 54 57
98 99 100 97 89 84 69 64 60 56 64 64 69 83 88 84 80 80 84 85 86 82 72 44 18 23 48 19 20 54 29 23 60 68 54 58 63 66
97 97 97 98 97 82 71 68 77 74 73 73 73 70 72 85 84 86 86 81 78 69 29 17 12 12 25 18 20 35 38 40 46 60 62 76 94 94
96 96 97 81 82 83 74 70 84 93 91 86 83 80 80 83 88 91 92 81 64 49 26 20 19 19 18 21 28 66 84 83 89 87 92 96 96 97
93 95 96 93 95 92 88 95 99 100 99 93 92 92 90 88 94 97 97 94 85 49 35 21 16 16 18 33 64 83 84 61 61 75 91 95 96 94
78 89 95 97 96 95 95 96 97 100 98 96 100 100 97 95 95 97 98 97 95 92 79 68 68 56 49 42 32 40 67 83 96 96 96 97 95 96

GFSNE_700_rhum_123.txt.gz
RH
76 71 58 78 90 76 55 56 52 42 34 38 36 40 39 38 33 32 35 37 34 33 36 38 44 50 49 70 69 70 100 91 88 90 83 84 70 82
92 77 65 89 79 67 52 43 40 29 31 32 30 28 28 28 31 32 32 32 30 29 33 33 37 46 50 58 63 72 73 78 75 77 78 74 66 88
98 87 78 96 75 60 44 44 38 34 31 28 28 30 32 33 32 31 30 29 29 30 28 30 34 38 40 46 53 66 72 64 65 77 71 96 93 96
89 88 89 91 69 53 52 46 42 40 37 34 34 31 31 31 28 25 26 29 30 29 30 33 32 36 41 45 63 79 71 88 77 70 85 98 90 97
93 97 99 79 72 61 56 51 47 41 35 33 32 30 30 26 25 25 28 35 39 37 38 41 45 43 42 45 60 99 95 98 92 80 98 98 99 99
100 96 93 80 67 62 60 62 52 42 39 36 32 30 29 28 27 28 33 36 40 40 44 47 52 55 53 63 63 97 100 100 99 96 97 98 98 99
99 95 85 78 78 77 75 72 61 49 44 38 33 30 31 30 30 31 36 39 36 36 38 43 48 61 65 73 100 100 97 95 84 89 89 95 95 99
98 88 87 84 88 88 74 74 60 46 43 34 30 32 35 35 37 36 36 35 36 34 39 41 46 50 91 100 100 100 97 90 81 81 98 97 94 93
94 94 92 94 95 91 80 72 56 48 42 34 32 35 36 35 36 39 36 35 37 38 39 44 54 71 86 94 90 97 99 83 80 82 88 94 96 97
88 95 93 96 98 94 80 69 54 48 39 36 40 40 39 39 42 40 36 39 39 43 43 44 53 75 90 96 91 86 78 78 87 80 79 86 94 97
88 97 100 99 100 96 80 65 56 46 41 40 42 43 43 44 45 46 45 43 44 47 49 48 64 73 92 86 84 85 78 79 74 69 77 85 95 62
96 94 100 100 99 91 79 65 53 46 44 46 46 44 45 48 48 48 46 50 50 52 60 55 61 82 80 84 95 86 83 78 73 71 81 79 77 42
92 96 100 100 99 87 72 59 55 55 53 52 49 45 44 49 55 52 49 53 56 63 65 67 78 93 87 88 88 80 88 75 67 52 48 35 27 18
97 100 100 100 94 82 70 65 64 61 57 52 48 45 49 58 58 55 59 62 59 58 72 70 70 84 89 91 78 89 74 54 35 28 23 21 15 12
100 100 100 98 93 82 74 74 71 64 56 48 41 38 41 55 55 58 66 67 66 68 74 78 75 72 84 85 80 96 35 18 17 17 14 13 12 13
100 100 100 100 96 87 84 84 81 64 50 44 40 40 40 56 60 68 69 74 70 73 78 82 83 80 78 88 94 100 92 62 15 15 12 13 16 21
100 99 99 100 100 94 90 94 91 81 56 46 43 53 60 53 77 78 78 74 73 74 80 84 84 88 90 93 96 98 40 14 13 14 20 20 27 29
98 99 100 100 99 97 97 98 96 91 73 57 55 53 69 59 75 80 83 80 78 76 80 82 74 75 72 52 66 78 20 14 14 14 18 21 24 38
96 97 98 98 98 98 97 97 98 94 83 70 64 66 60 64 64 67 75 82 80 80 82 84 83 76 50 15 16 20 22 35 42 17 19 25 34 44
96 97 97 97 97 97 98 98 100 92 84 76 79 76 78 70 64 60 61 71 78 82 82 81 66 41 16 15 51 62 29 58 91 48 44 54 51 60
96 96 96 97 96 97 96 97 99 91 77 72 82 97 89 84 74 66 66 67 85 89 77 63 50 27 18 16 13 20 34 35 60 60 65 78 87 75
95 95 96 97 96 97 97 96 95 88 87 88 93 98 98 91 85 79 77 83 96 97 94 70 45 27 21 21 19 18 23 72 78 78 85 88 92 95
96 95 95 96 96 96 96 96 96 95 96 96 97 100 98 94 95 92 92 94 100 98 97 96 80 58 36 20 17 20 42 36 68 80 83 91 87 87

GFSNE_700_rhum_126.txt.gz
RH
53 74 69 70 73 69 83 90 70 54 58 49 32 32 33 32 32 30 29 32 31 30 30 30 30 29 30 29 36 50 54 55 57 57 68 76 84 84
67 75 76 73 73 91 83 78 69 55 51 48 33 30 25 26 27 26 25 25 25 24 25 25 26 26 27 27 28 34 42 50 55 56 64 60 78 79
71 79 85 81 78 92 95 91 70 51 47 39 33 29 26 26 26 25 25 24 23 24 24 25 24 26 26 27 27 28 32 40 45 50 60 64 95 86
87 78 99 91 83 95 95 87 69 50 49 45 36 30 29 29 27 26 24 24 24 23 23 25 27 28 30 32 36 37 39 39 65 54 76 72 87 86
88 76 92 91 88 98 99 90 66 59 56 50 44 38 34 31 28 27 27 26 24 24 25 25 26 28 33 40 45 46 47 55 60 96 83 91 100 95
98 99 96 99 90 100 98 88 66 61 63 57 49 42 37 32 29 29 29 29 27 26 24 26 30 29 34 42 50 53 72 71 94 100 98 91 98 100
97 94 100 100 98 100 100 83 79 71 62 59 52 42 40 32 28 29 30 29 28 28 30 29 30 29 32 41 50 55 67 97 100 94 68 68 75 90
100 100 100 99 100 100 97 91 91 80 69 68 55 45 40 33 31 32 32 33 32 31 30 28 30 31 36 43 47 76 100 98 100 100 79 76 79 93
100 100 100 100 97 96 93 96 95 89 76 70 54 44 40 33 36 35 37 36 36 35 34 34 35 39 41 47 51 74 100 100 100 99 81 78 78 95
100 100 100 99 100 99 97 96 96 95 92 78 60 49 41 38 39 41 42 41 41 40 36 34 39 42 49 57 64 88 90 82 80 83 82 88 85 89
100 100 100 99 93 100 90 99 100 99 89 76 59 48 41 41 42 44 42 41 44 44 38 36 40 43 50 59 73 89 99 87 77 76 78 78 73 80
100 100 100 100 99 100 100 99 100 97 87 70 55 47 44 45 45 45 43 44 46 45 45 44 50 51 56 65 72 90 97 88 79 75 75 74 73 84
98 99 99 99 98 100 100 100 99 96 81 65 56 51 49 49 48 46 44 48 51 42 42 49 57 57 59 64 82 95 92 85 79 75 76 71 76 83
99 97 92 100 100 100 100 100 100 92 76 65 58 56 54 53 48 43 42 46 45 47 56 56 58 66 64 70 78 91 86 83 74 73 64 51 46 41
99 99 98 99 100 99 100 100 100 95 81 73 70 64 56 49 42 37 35 40 49 61 67 66 66 76 78 75 76 88 77 80 63 40 28 30 24 25
97 98 98 99 99 99 99 99 99 98 88 81 77 69 52 44 38 35 41 53 65 69 70 72 72 80 82 87 80 87 73 74 62 20 17 17 16 14
100 100 99 100 100 100 99 98 98 97 96 93 91 82 63 46 39 40 46 60 76 80 79 78 80 79 82 86 90 96 92 92 95 92 41 15 13 12
97 98 98 98 98 99 99 98 98 98 98 96 96 96 82 56 46 46 50 63 70 80 79 76 81 81 77 68 75 78 84 92 62 17 14 14 16 14
96 95 96 96 96 97 97 97 97 97 97 96 97 97 92 69 61 61 60 58 63 73 83 82 84 82 80 82 78 59 51 66 65 14 15 14 18 18
97 95 96 97 97 96 96 96 96 96 96 96 96 96 95 80 75 73 71 68 67 67 79 90 85 79 78 76 63 31 23 35 22 18 58 45 24 23
93 96 96 97 96 96 98 98 96 96 96 96 96 96 96 87 90 90 84 82 76 76 87 96 88 80 76 67 35 18 20 51 62 25 60 82 35 40
85 88 91 94 96 96 96 95 96 97 96 96 95 95 95 97 99 100 97 92 87 86 92 100 100 92 81 63 36 22 21 16 38 38 42 75 92 87
86 88 92 94 95 96 96 96 96 96 96 96 95 96 95 95 96 98 99 98 95 92 97 100 99 96 94 76 44 21 19 20 17 18 28 70 83 82

GFSNE_700_rhum_129.txt.gz
RH
57 56 55 58 77 86 69 74 74 78 67 62 55 51 43 29 26 25 22 24 25 24 23 23 23 23 24 23 24 24 24 24 24 29 35 40 44 54
58 57 63 66 80 89 75 81 81 85 69 70 57 48 42 33 28 26 25 24 27 24 22 21 23 24 22 22 22 23 24 26 25 27 32 33 48 51
58 56 61 69 88 85 94 83 84 90 84 88 65 48 40 35 30 29 27 28 25 23 23 23 23 24 23 24 28 27 26 30 32 29 28 32 44 79
59 55 61 76 88 86 94 91 98 98 81 98 69 50 44 41 37 31 30 26 24 25 25 25 25 25 24 23 24 28 34 38 39 39 34 34 53 63
63 65 70 66 82 83 93 95 95 99 87 98 74 57 53 52 41 36 33 28 26 27 27 26 25 24 24 23 24 30 33 40 46 46 46 50 96 83
84 89 75 87 90 90 86 99 92 98 100 92 98 70 66 57 46 40 35 30 29 30 29 28 26 26 23 24 24 28 34 41 48 57 60 61 83 100
96 96 99 80 78 85 100 96 100 98 100 99 97 84 64 56 46 41 36 32 30 32 32 31 28 26 25 23 25 28 32 41 45 51 87 77 60 73
98 99 94 88 92 93 100 100 99 100 100 99 99 83 70 59 49 44 39 34 33 34 34 32 31 28 26 24 27 31 37 44 45 70 87 82 65 62
99 98 99 100 100 99 99 100 100 100 97 99 100 91 77 70 53 45 40 36 36 36 34 33 31 31 28 27 30 32 38 43 68 81 98 96 74 62
100 100 100 100 100 100 100 100 99 99 98 99 99 98 87 73 58 49 42 37 38 38 37 36 35 34 30 29 34 39 46 53 66 81 88 80 75 72
100 100 100 100 100 99 99 99 98 99 99 99 99 96 87 73 59 49 43 41 43 43 41 39 42 37 33 34 40 41 45 64 84 79 84 84 73 72
100 100 99 99 100 100 95 95 98 99 99 99 99 94 87 72 57 50 49 49 48 47 47 45 44 39 35 38 46 52 58 71 81 84 84 76 76 79
99 100 100 99 99 99 99 99 98 98 99 99 99 100 89 71 59 53 51 51 50 47 44 43 45 37 33 46 55 60 68 74 86 87 86 85 73 75
91 98 99 99 98 97 97 98 98 96 99 99 98 98 88 71 61 58 56 53 47 42 39 38 38 43 43 57 64 69 71 76 77 93 86 87 76 73
99 88 80 93 94 98 98 98 98 98 98 98 97 96 90 76 67 64 56 49 43 38 34 34 38 52 60 64 68 72 74 71 70 91 78 72 56 54
90 89 91 91 97 99 98 96 96 96 98 97 97 97 97 90 74 72 60 45 39 34 33 37 50 65 65 66 70 76 87 74 74 84 81 31 26 28
92 92 94 100 100 98 98 98 98 97 98 99 98 98 97 95 88 84 71 50 41 36 36 44 51 62 69 67 71 76 82 86 88 78 84 43 27 19
91 97 99 100 96 94 96 97 96 97 97 97 97 96 97 97 96 95 90 66 48 46 47 48 60 70 70 69 70 72 74 82 88 87 94 93 87 25
68 77 94 100 98 98 100 95 96 97 96 96 96 96 96 96 97 100 96 81 58 54 51 52 59 64 65 78 74 72 73 66 58 67 93 22 12 13
78 80 84 92 100 98 97 96 96 96 96 96 96 96 97 97 96 97 98 88 72 65 58 57 59 59 66 74 77 83 75 63 52 36 52 36 13 15
77 82 88 92 91 97 98 97 96 96 96 96 96 95 97 96 97 97 96 94 82 78 76 69 62 65 80 79 77 71 64 42 27 25 32 19 23 54
62 62 70 76 88 92 95 98 96 96 96 96 96 96 97 97 96 96 95 96 96 96 91 80 77 77 87 94 83 62 51 30 18 17 48 36 35 69
67 72 74 74 74 83 96 100 97 96 97 96 97 96 96 96 96 95 96 96 96 96 97 95 90 88 97 98 98 84 49 33 24 19 16 38 43 59

GFSNE_700_rhum_132.txt.gz
RH
58 63 59 56 56 55 58 70 87 76 74 80 81 82 84 74 47 41 29 25 23 23 22 22 21 20 21 20 20 21 22 22 23 24 24 24 22 24
53 68 61 58 57 57 60 77 96 81 74 80 86 81 86 94 64 44 36 30 28 25 22 22 21 22 22 21 22 24 23 25 24 23 24 27 25 26
57 63 64 60 60 66 69 97 99 93 85 86 85 84 93 98 96 52 43 37 30 26 24 23 24 24 24 22 21 21 21 22 25 27 28 31 30 28
50 60 66 61 59 66 67 80 100 90 86 95 93 79 70 96 93 57 51 46 35 29 27 26 27 26 26 24 22 22 24 24 27 29 30 32 38 34
59 68 68 66 61 72 78 85 86 97 90 97 93 94 92 80 98 75 58 50 40 33 30 27 29 29 27 26 23 21 22 23 28 32 36 37 41 44
90 68 63 58 71 84 96 98 94 99 99 97 99 86 98 99 98 100 79 55 44 36 31 29 31 31 30 27 24 22 22 25 28 36 40 42 52 56
81 73 67 65 69 75 94 97 99 98 90 96 92 97 100 100 98 96 74 60 49 40 34 32 34 32 31 29 26 24 24 27 30 37 45 45 48 68
97 93 89 73 77 91 94 97 99 100 99 99 100 100 100 99 97 88 82 61 47 43 38 36 36 35 34 32 29 27 25 30 31 39 44 44 48 55
97 99 87 98 98 99 98 99 100 100 100 100 100 100 100 99 99 94 84 72 54 45 40 37 37 37 37 35 32 28 28 32 36 40 41 44 69 78
98 99 98 99 99 100 100 100 99 100 100 100 99 99 99 99 100 99 92 88 59 49 43 43 43 42 40 38 35 31 28 31 36 40 43 50 67 70
100 100 100 100 99 100 100 100 100 100 100 100 99 99 99 99 99 98 98 75 59 53 50 47 48 45 41 40 36 31 28 33 40 42 44 51 64 76
96 98 99 100 100 100 100 99 100 100 100 99 99 99 98 97 98 97 96 84 60 56 53 50 49 47 44 42 38 33 30 35 42 46 49 55 62 70
98 96 88 92 99 99 99 98 98 98 99 99 99 99 98 98 97 96 96 92 73 62 57 53 49 47 48 44 40 35 42 46 51 54 56 64 65 71
96 100 98 99 97 86 86 82 89 94 91 98 98 98 97 97 98 96 95 93 93 82 57 50 45 42 42 45 47 45 52 60 59 57 63 75 72 72
67 74 84 89 99 100 99 100 99 97 95 96 88 92 95 96 97 95 96 94 93 87 57 47 42 40 37 45 56 61 63 66 65 64 65 80 86 72
54 67 77 90 100 99 100 99 98 100 99 99 98 98 99 96 98 97 98 98 95 90 69 47 41 39 47 56 60 69 69 71 70 71 70 73 89 70
41 55 71 77 91 100 100 99 98 95 95 98 97 97 97 96 97 97 97 97 96 94 67 49 44 46 56 66 64 73 72 71 73 77 78 75 85 55
38 52 64 75 83 88 90 93 94 99 98 96 96 96 96 96 97 96 97 96 98 97 95 84 49 46 49 60 62 66 64 75 74 76 83 86 86 67
41 52 62 73 80 86 95 93 92 97 98 96 98 98 96 97 96 96 96 96 97 97 97 77 58 53 54 54 55 64 63 65 68 68 68 77 88 86
47 52 57 65 76 87 96 100 96 93 96 97 96 96 97 97 96 96 96 96 96 97 96 92 76 71 65 57 56 76 76 72 74 75 72 57 66 83
48 53 55 58 64 70 80 92 98 98 95 94 94 95 96 96 96 96 96 96 96 96 96 96 96 83 76 70 66 73 78 77 76 72 64 46 36 63
48 55 60 61 63 65 69 77 85 92 95 96 97 95 94 95 96 96 96 96 96 96 96 95 96 96 95 83 81 83 86 77 72 63 44 29 30 34
56 57 55 53 58 66 73 74 73 77 96 100 96 96 97 95 96 96 96 96 97 96 95 96 97 96 95 96 94 98 100 90 79 65 37 21 20 49

GFSNE_700_rhum_135.txt.gz
RH
100 95 42 55 65 64 60 58 62 65 61 79 80 77 74 76 81 81 76 77 73 38 28 21 20 20 19 19 19 19 19 19 20 20 20 21 22 22
98 91 44 59 69 77 65 58 62 69 67 84 82 83 84 82 88 79 83 69 75 66 36 27 24 22 20 21 20 20 20 21 22 21 22 24 23 23
100 100 91 52 66 77 73 62 61 70 86 96 96 98 96 94 88 96 83 77 77 72 45 37 29 24 23 22 22 22 22 22 22 22 22 23 23 26
98 100 88 55 60 71 75 68 62 66 86 96 98 99 99 99 88 93 96 94 90 78 57 47 36 28 25 24 24 24 23 24 24 23 24 25 26 27
97 98 67 76 68 69 88 80 71 90 89 89 96 100 98 98 98 99 100 98 94 86 85 85 41 32 28 28 28 27 25 23 22 23 23 26 29 31
99 97 92 94 96 80 87 99 99 97 97 99 98 100 99 100 99 99 100 100 100 98 99 85 45 36 31 31 32 29 27 26 24 24 23 27 32 39
97 100 99 99 99 99 98 93 90 93 99 99 98 99 99 100 98 100 99 100 98 99 89 63 46 38 33 32 34 33 32 29 25 24 25 28 33 40
100 99 100 100 99 100 98 99 98 98 99 100 98 98 97 100 100 99 100 99 99 92 80 62 48 39 35 34 36 35 33 30 27 24 26 30 33 39
100 100 100 100 100 99 100 100 99 100 99 99 99 100 100 100 100 100 100 100 98 92 80 66 56 58 65 53 40 39 36 32 30 28 29 33 42 51
100 100 100 100 100 100 99 99 100 99 99 100 99 100 99 99 100 100 100 99 99 94 93 78 61 50 46 43 43 42 40 36 33 31 36 44 51 58
94 94 99 99 98 97 99 99 100 100 99 99 100 100 100 99 99 99 99 99 99 98 96 91 73 56 50 49 47 46 44 42 39 36 42 54 67 79
90 92 89 86 98 90 78 85 87 85 95 98 99 99 99 98 98 98 99 99 99 98 96 80 62 57 54 54 50 52 50 48 42 40 50 54 64 78
70 78 95 91 92 96 95 96 95 97 93 72 84 90 96 97 98 98 98 98 97 98 96 92 87 81 60 54 54 50 49 49 45 47 53 59 64 81
49 58 65 70 88 98 100 98 98 99 94 92 97 94 94 94 90 84 92 98 98 98 95 91 85 79 78 73 54 48 47 49 46 54 59 60 66 78
19 26 34 46 60 77 94 100 100 100 100 99 97 98 99 99 96 90 96 100 97 97 98 96 92 91 81 72 56 47 47 54 62 59 64 68 68 71
9 10 11 16 28 42 60 86 100 100 100 100 100 99 98 98 98 100 94 98 98 98 97 97 96 96 86 62 65 60 60 69 73 79 77 73 74 75
11 13 16 23 32 40 52 64 82 99 99 99 98 99 97 97 99 98 98 97 95 97 97 97 97 96 94 91 63 71 74 76 83 84 76 78 82 86
14 14 18 23 26 36 53 68 80 89 97 100 98 97 97 97 97 97 95 96 97 97 97 96 96 96 93 80 82 73 67 79 89 84 76 81 85 90
15 19 21 27 33 38 46 62 72 86 95 100 100 100 99 97 98 97 97 96 96 97 97 96 95 96 97 96 96 92 73 77 84 77 80 77 74 89
17 18 21 24 33 42 47 50 63 80 92 95 99 100 99 97 96 97 96 97 97 97 96 96 96 96 96 97 93 89 87 85 85 77 71 68 59 63
27 32 33 33 38 45 51 57 62 68 77 90 97 97 98 97 97 97 96 97 97 95 94 96 98 96 96 96 96 96 96 89 84 84 78 76 73 66
35 47 40 47 50 48 48 50 57 68 74 78 82 94 99 97 97 97 97 97 96 99 96 96 96 94 95 96 96 96 96 91 85 84 80 74 62 54
29 56 63 43 38 45 44 47 50 52 69 78 81 91 100 98 98 97 98 96 97 98 97 96 95 95 96 96 96 96 96 95 94 82 70 59 43 37